owner,sensor,date,latitude,longitude,vertical_datum,sea_water_practical_salinity,qcFlag 
DISL,ioos:station:DISL:MHPA:1,2017-05-01T00:00:00Z,30.6671,-87.9365,1.601,0.25,1111122 
DISL,ioos:station:DISL:MHPA:1,2017-05-01T00:30:00Z,30.6671,-87.9365,1.605,0.25,1111122 
DISL,ioos:station:DISL:MHPA:1,2017-05-01T01:00:00Z,30.6671,-87.9365,1.554,0.25,1111122 
DISL,ioos:station:DISL:MHPA:1,2017-05-01T01:30:00Z,30.6671,-87.9365,1.525,0.25,1111122 
DISL,ioos:station:DISL:MHPA:1,2017-05-01T02:00:00Z,30.6671,-87.9365,1.456,0.25,1111122 
DISL,ioos:station:DISL:MHPA:1,2017-05-01T02:30:00Z,30.6671,-87.9365,1.405,0.25,1111122 
DISL,ioos:station:DISL:MHPA:1,2017-05-01T03:00:00Z,30.6671,-87.9365,1.349,0.25,1111122 
DISL,ioos:station:DISL:MHPA:1,2017-05-01T03:30:00Z,30.6671,-87.9365,1.304,0.26,1111122 
DISL,ioos:station:DISL:MHPA:1,2017-05-01T04:00:00Z,30.6671,-87.9365,1.39,0.26,1111122 
DISL,ioos:station:DISL:MHPA:1,2017-05-01T04:30:00Z,30.6671,-87.9365,1.443,0.26,1111122 
DISL,ioos:station:DISL:MHPA:1,2017-05-01T05:00:00Z,30.6671,-87.9365,1.47,0.25,1111122 
DISL,ioos:station:DISL:MHPA:1,2017-05-01T05:30:00Z,30.6671,-87.9365,1.492,0.25,1111122 
DISL,ioos:station:DISL:MHPA:1,2017-05-01T06:00:00Z,30.6671,-87.9365,1.565,0.25,1111122 
DISL,ioos:station:DISL:MHPA:1,2017-05-01T06:30:00Z,30.6671,-87.9365,1.648,0.25,1111122 
DISL,ioos:station:DISL:MHPA:1,2017-05-01T07:00:00Z,30.6671,-87.9365,1.627,0.25,1111122 
DISL,ioos:station:DISL:MHPA:1,2017-05-01T07:30:00Z,30.6671,-87.9365,1.702,0.25,1111122 
DISL,ioos:station:DISL:MHPA:1,2017-05-01T08:00:00Z,30.6671,-87.9365,1.836,0.25,1111122 
DISL,ioos:station:DISL:MHPA:1,2017-05-01T08:30:00Z,30.6671,-87.9365,1.761,0.25,1111122 
DISL,ioos:station:DISL:MHPA:1,2017-05-01T09:00:00Z,30.6671,-87.9365,1.717,0.25,1111122 
DISL,ioos:station:DISL:MHPA:1,2017-05-01T09:30:00Z,30.6671,-87.9365,1.581,0.25,1111122 
DISL,ioos:station:DISL:MHPA:1,2017-05-01T10:00:00Z,30.6671,-87.9365,1.517,0.25,1111122 
DISL,ioos:station:DISL:MHPA:1,2017-05-01T10:30:00Z,30.6671,-87.9365,1.43,0.25,1111122 
DISL,ioos:station:DISL:MHPA:1,2017-05-01T11:00:00Z,30.6671,-87.9365,1.345,0.25,1111122 
DISL,ioos:station:DISL:MHPA:1,2017-05-01T11:30:00Z,30.6671,-87.9365,1.303,0.25,1111122 
DISL,ioos:station:DISL:MHPA:1,2017-05-01T12:00:00Z,30.6671,-87.9365,1.346,0.25,1111122 
DISL,ioos:station:DISL:MHPA:1,2017-05-01T12:30:00Z,30.6671,-87.9365,1.468,0.25,1111122 
DISL,ioos:station:DISL:MHPA:1,2017-05-01T13:00:00Z,30.6671,-87.9365,1.474,0.25,1111122 
DISL,ioos:station:DISL:MHPA:1,2017-05-01T13:30:00Z,30.6671,-87.9365,1.377,0.25,1111122 
DISL,ioos:station:DISL:MHPA:1,2017-05-01T14:00:00Z,30.6671,-87.9365,1.319,0.25,1111122 
DISL,ioos:station:DISL:MHPA:1,2017-05-01T14:30:00Z,30.6671,-87.9365,1.258,0.25,1111122 
DISL,ioos:station:DISL:MHPA:1,2017-05-01T15:00:00Z,30.6671,-87.9365,1.196,0.26,1111122 
DISL,ioos:station:DISL:MHPA:1,2017-05-01T15:30:00Z,30.6671,-87.9365,1.159,0.25,1111122 
DISL,ioos:station:DISL:MHPA:1,2017-05-01T16:00:00Z,30.6671,-87.9365,1.18,0.21,1111122 
DISL,ioos:station:DISL:MHPA:1,2017-05-01T16:30:00Z,30.6671,-87.9365,1.248,0.21,1111122 
DISL,ioos:station:DISL:MHPA:1,2017-05-01T17:00:00Z,30.6671,-87.9365,1.306,0.21,1111122 
DISL,ioos:station:DISL:MHPA:1,2017-05-01T17:30:00Z,30.6671,-87.9365,1.364,0.21,1111122 
DISL,ioos:station:DISL:MHPA:1,2017-05-01T18:00:00Z,30.6671,-87.9365,1.415,0.21,1111122 
DISL,ioos:station:DISL:MHPA:1,2017-05-01T18:30:00Z,30.6671,-87.9365,1.444,0.21,1111122 
DISL,ioos:station:DISL:MHPA:1,2017-05-01T19:00:00Z,30.6671,-87.9365,1.504,0.21,1111122 
DISL,ioos:station:DISL:MHPA:1,2017-05-01T19:30:00Z,30.6671,-87.9365,1.532,0.21,1111122 
DISL,ioos:station:DISL:MHPA:1,2017-05-01T20:00:00Z,30.6671,-87.9365,1.557,0.21,1111122 
DISL,ioos:station:DISL:MHPA:1,2017-05-01T20:30:00Z,30.6671,-87.9365,1.577,0.21,1111122 
DISL,ioos:station:DISL:MHPA:1,2017-05-01T21:00:00Z,30.6671,-87.9365,1.585,0.21,1111122 
DISL,ioos:station:DISL:MHPA:1,2017-05-01T21:30:00Z,30.6671,-87.9365,1.624,0.21,1111122 
DISL,ioos:station:DISL:MHPA:1,2017-05-01T22:00:00Z,30.6671,-87.9365,1.602,0.21,1111122 
DISL,ioos:station:DISL:MHPA:1,2017-05-01T22:30:00Z,30.6671,-87.9365,1.575,0.21,1111122 
DISL,ioos:station:DISL:MHPA:1,2017-05-01T23:00:00Z,30.6671,-87.9365,1.54,0.21,1111122 
DISL,ioos:station:DISL:MHPA:1,2017-05-01T23:30:00Z,30.6671,-87.9365,1.542,0.21,1111122 
DISL,ioos:station:DISL:MHPA:1,2017-05-02T00:00:00Z,30.6671,-87.9365,1.51,0.21,1111122 
DISL,ioos:station:DISL:MHPA:1,2017-05-02T00:30:00Z,30.6671,-87.9365,1.457,0.21,1111122 
DISL,ioos:station:DISL:MHPA:1,2017-05-02T01:00:00Z,30.6671,-87.9365,1.416,0.21,1111122 
DISL,ioos:station:DISL:MHPA:1,2017-05-02T01:30:00Z,30.6671,-87.9365,1.384,0.21,1111122 
DISL,ioos:station:DISL:MHPA:1,2017-05-02T02:00:00Z,30.6671,-87.9365,1.358,0.21,1111122 
DISL,ioos:station:DISL:MHPA:1,2017-05-02T02:30:00Z,30.6671,-87.9365,1.331,0.21,1111122 
DISL,ioos:station:DISL:MHPA:1,2017-05-02T03:00:00Z,30.6671,-87.9365,1.29,0.21,1111122 
DISL,ioos:station:DISL:MHPA:1,2017-05-02T03:30:00Z,30.6671,-87.9365,1.252,0.21,1111122 
DISL,ioos:station:DISL:MHPA:1,2017-05-02T04:00:00Z,30.6671,-87.9365,1.217,0.21,1111122 
DISL,ioos:station:DISL:MHPA:1,2017-05-02T04:30:00Z,30.6671,-87.9365,1.182,0.21,1111122 
DISL,ioos:station:DISL:MHPA:1,2017-05-02T05:00:00Z,30.6671,-87.9365,1.145,0.21,1111122 
DISL,ioos:station:DISL:MHPA:1,2017-05-02T05:30:00Z,30.6671,-87.9365,1.115,0.21,1111122 
DISL,ioos:station:DISL:MHPA:1,2017-05-02T06:00:00Z,30.6671,-87.9365,1.09,0.21,1111122 
DISL,ioos:station:DISL:MHPA:1,2017-05-02T06:30:00Z,30.6671,-87.9365,1.07,0.21,1111122 
DISL,ioos:station:DISL:MHPA:1,2017-05-02T07:00:00Z,30.6671,-87.9365,1.051,0.21,1111122 
DISL,ioos:station:DISL:MHPA:1,2017-05-02T07:30:00Z,30.6671,-87.9365,1.032,0.21,1111122 
DISL,ioos:station:DISL:MHPA:1,2017-05-02T08:00:00Z,30.6671,-87.9365,1.013,0.21,1111122 
DISL,ioos:station:DISL:MHPA:1,2017-05-02T08:30:00Z,30.6671,-87.9365,0.995,0.21,1111122 
DISL,ioos:station:DISL:MHPA:1,2017-05-02T09:00:00Z,30.6671,-87.9365,0.979,0.21,1111122 
DISL,ioos:station:DISL:MHPA:1,2017-05-02T09:30:00Z,30.6671,-87.9365,0.968,0.21,1111122 
DISL,ioos:station:DISL:MHPA:1,2017-05-02T10:00:00Z,30.6671,-87.9365,0.964,0.21,1111122 
DISL,ioos:station:DISL:MHPA:1,2017-05-02T10:30:00Z,30.6671,-87.9365,0.976,0.21,1111122 
DISL,ioos:station:DISL:MHPA:1,2017-05-02T11:00:00Z,30.6671,-87.9365,0.997,0.21,1111122 
DISL,ioos:station:DISL:MHPA:1,2017-05-02T11:30:00Z,30.6671,-87.9365,1.022,0.21,1111122 
DISL,ioos:station:DISL:MHPA:1,2017-05-02T12:00:00Z,30.6671,-87.9365,1.055,0.21,1111122 
DISL,ioos:station:DISL:MHPA:1,2017-05-02T12:30:00Z,30.6671,-87.9365,1.097,0.21,1111122 
DISL,ioos:station:DISL:MHPA:1,2017-05-02T13:00:00Z,30.6671,-87.9365,1.141,0.21,1111122 
DISL,ioos:station:DISL:MHPA:1,2017-05-02T13:30:00Z,30.6671,-87.9365,1.187,0.21,1111122 
DISL,ioos:station:DISL:MHPA:1,2017-05-02T14:00:00Z,30.6671,-87.9365,1.228,0.21,1111122 
DISL,ioos:station:DISL:MHPA:1,2017-05-02T14:30:00Z,30.6671,-87.9365,1.263,0.21,1111122 
DISL,ioos:station:DISL:MHPA:1,2017-05-02T15:00:00Z,30.6671,-87.9365,1.294,0.23,1111122 
DISL,ioos:station:DISL:MHPA:1,2017-05-02T15:30:00Z,30.6671,-87.9365,1.33,0.23,1111122 
DISL,ioos:station:DISL:MHPA:1,2017-05-02T16:00:00Z,30.6671,-87.9365,1.365,0.23,1111122 
DISL,ioos:station:DISL:MHPA:1,2017-05-02T16:30:00Z,30.6671,-87.9365,1.396,0.25,1111122 
DISL,ioos:station:DISL:MHPA:1,2017-05-02T17:00:00Z,30.6671,-87.9365,1.422,0.22,1111122 
DISL,ioos:station:DISL:MHPA:1,2017-05-02T17:30:00Z,30.6671,-87.9365,1.446,0.2,1111122 
DISL,ioos:station:DISL:MHPA:1,2017-05-02T18:00:00Z,30.6671,-87.9365,1.466,0.23,1111122 
DISL,ioos:station:DISL:MHPA:1,2017-05-02T18:30:00Z,30.6671,-87.9365,1.489,0.23,1111122 
DISL,ioos:station:DISL:MHPA:1,2017-05-02T19:00:00Z,30.6671,-87.9365,1.511,0.25,1111122 
DISL,ioos:station:DISL:MHPA:1,2017-05-02T19:30:00Z,30.6671,-87.9365,1.513,0.25,1111122 
DISL,ioos:station:DISL:MHPA:1,2017-05-02T20:00:00Z,30.6671,-87.9365,1.524,0.25,1111122 
DISL,ioos:station:DISL:MHPA:1,2017-05-02T20:30:00Z,30.6671,-87.9365,1.566,0.21,1111122 
DISL,ioos:station:DISL:MHPA:1,2017-05-02T21:00:00Z,30.6671,-87.9365,1.585,0.2,1111122 
DISL,ioos:station:DISL:MHPA:1,2017-05-02T21:30:00Z,30.6671,-87.9365,1.582,0.19,1111122 
DISL,ioos:station:DISL:MHPA:1,2017-05-02T22:00:00Z,30.6671,-87.9365,1.565,0.2,1111122 
DISL,ioos:station:DISL:MHPA:1,2017-05-02T22:30:00Z,30.6671,-87.9365,1.539,0.19,1111122 
DISL,ioos:station:DISL:MHPA:1,2017-05-02T23:00:00Z,30.6671,-87.9365,1.515,0.2,1111122 
DISL,ioos:station:DISL:MHPA:1,2017-05-02T23:30:00Z,30.6671,-87.9365,1.487,0.24,1111122 
DISL,ioos:station:DISL:MHPA:1,2017-05-03T00:00:00Z,30.6671,-87.9365,1.456,0.23,1111122 
DISL,ioos:station:DISL:MHPA:1,2017-05-03T00:30:00Z,30.6671,-87.9365,1.43,0.24,1111122 
DISL,ioos:station:DISL:MHPA:1,2017-05-03T01:00:00Z,30.6671,-87.9365,1.398,0.23,1111122 
DISL,ioos:station:DISL:MHPA:1,2017-05-03T01:30:00Z,30.6671,-87.9365,1.364,0.23,1111122 
DISL,ioos:station:DISL:MHPA:1,2017-05-03T02:00:00Z,30.6671,-87.9365,1.333,0.23,1111122 
DISL,ioos:station:DISL:MHPA:1,2017-05-03T02:30:00Z,30.6671,-87.9365,1.301,0.23,1111122 
DISL,ioos:station:DISL:MHPA:1,2017-05-03T03:00:00Z,30.6671,-87.9365,1.275,0.22,1111122 
DISL,ioos:station:DISL:MHPA:1,2017-05-03T03:30:00Z,30.6671,-87.9365,1.245,0.22,1111122 
DISL,ioos:station:DISL:MHPA:1,2017-05-03T04:00:00Z,30.6671,-87.9365,1.213,0.22,1111122 
DISL,ioos:station:DISL:MHPA:1,2017-05-03T04:30:00Z,30.6671,-87.9365,1.184,0.21,1111122 
DISL,ioos:station:DISL:MHPA:1,2017-05-03T05:00:00Z,30.6671,-87.9365,1.156,0.21,1111122 
DISL,ioos:station:DISL:MHPA:1,2017-05-03T05:30:00Z,30.6671,-87.9365,1.125,0.22,1111122 
DISL,ioos:station:DISL:MHPA:1,2017-05-03T06:00:00Z,30.6671,-87.9365,1.097,0.2,1111122 
DISL,ioos:station:DISL:MHPA:1,2017-05-03T06:30:00Z,30.6671,-87.9365,1.073,0.23,1111122 
DISL,ioos:station:DISL:MHPA:1,2017-05-03T07:00:00Z,30.6671,-87.9365,1.05,0.21,1111122 
DISL,ioos:station:DISL:MHPA:1,2017-05-03T07:30:00Z,30.6671,-87.9365,1.028,0.2,1111122 
DISL,ioos:station:DISL:MHPA:1,2017-05-03T08:00:00Z,30.6671,-87.9365,1.007,0.21,1111122 
DISL,ioos:station:DISL:MHPA:1,2017-05-03T08:30:00Z,30.6671,-87.9365,0.987,0.22,1111122 
DISL,ioos:station:DISL:MHPA:1,2017-05-03T09:00:00Z,30.6671,-87.9365,0.967,0.22,1111122 
DISL,ioos:station:DISL:MHPA:1,2017-05-03T09:30:00Z,30.6671,-87.9365,0.952,0.22,1111122 
DISL,ioos:station:DISL:MHPA:1,2017-05-03T10:00:00Z,30.6671,-87.9365,0.947,0.23,1111122 
DISL,ioos:station:DISL:MHPA:1,2017-05-03T10:30:00Z,30.6671,-87.9365,0.957,0.19,1111122 
DISL,ioos:station:DISL:MHPA:1,2017-05-03T11:00:00Z,30.6671,-87.9365,0.952,0.18,1111122 
DISL,ioos:station:DISL:MHPA:1,2017-05-03T11:30:00Z,30.6671,-87.9365,0.956,0.18,1111122 
DISL,ioos:station:DISL:MHPA:1,2017-05-03T12:00:00Z,30.6671,-87.9365,0.971,0.22,1111122 
DISL,ioos:station:DISL:MHPA:1,2017-05-03T12:30:00Z,30.6671,-87.9365,0.994,0.19,1111122 
DISL,ioos:station:DISL:MHPA:1,2017-05-03T13:00:00Z,30.6671,-87.9365,1.019,0.19,1111122 
DISL,ioos:station:DISL:MHPA:1,2017-05-03T13:30:00Z,30.6671,-87.9365,1.05,0.19,1111122 
DISL,ioos:station:DISL:MHPA:1,2017-05-03T14:00:00Z,30.6671,-87.9365,1.083,0.19,1111122 
DISL,ioos:station:DISL:MHPA:1,2017-05-03T14:30:00Z,30.6671,-87.9365,1.117,0.19,1111122 
DISL,ioos:station:DISL:MHPA:1,2017-05-03T15:00:00Z,30.6671,-87.9365,1.159,0.19,1111122 
DISL,ioos:station:DISL:MHPA:1,2017-05-03T15:30:00Z,30.6671,-87.9365,1.212,0.19,1111122 
DISL,ioos:station:DISL:MHPA:1,2017-05-03T16:00:00Z,30.6671,-87.9365,1.265,0.19,1111122 
DISL,ioos:station:DISL:MHPA:1,2017-05-03T16:30:00Z,30.6671,-87.9365,1.313,0.19,1111122 
DISL,ioos:station:DISL:MHPA:1,2017-05-03T17:00:00Z,30.6671,-87.9365,1.362,0.19,1111122 
DISL,ioos:station:DISL:MHPA:1,2017-05-03T17:30:00Z,30.6671,-87.9365,1.408,0.18,1111122 
DISL,ioos:station:DISL:MHPA:1,2017-05-03T18:00:00Z,30.6671,-87.9365,1.444,0.18,1111122 
DISL,ioos:station:DISL:MHPA:1,2017-05-03T18:30:00Z,30.6671,-87.9365,1.476,0.18,1111122 
DISL,ioos:station:DISL:MHPA:1,2017-05-03T19:00:00Z,30.6671,-87.9365,1.498,0.18,1111122 
DISL,ioos:station:DISL:MHPA:1,2017-05-03T19:30:00Z,30.6671,-87.9365,1.524,0.18,1111122 
DISL,ioos:station:DISL:MHPA:1,2017-05-03T20:00:00Z,30.6671,-87.9365,1.541,0.18,1111122 
DISL,ioos:station:DISL:MHPA:1,2017-05-03T20:30:00Z,30.6671,-87.9365,1.531,0.18,1111122 
DISL,ioos:station:DISL:MHPA:1,2017-05-03T21:00:00Z,30.6671,-87.9365,1.519,0.19,1111122 
DISL,ioos:station:DISL:MHPA:1,2017-05-03T21:30:00Z,30.6671,-87.9365,1.568,0.19,1111122 
DISL,ioos:station:DISL:MHPA:1,2017-05-03T22:00:00Z,30.6671,-87.9365,1.584,0.19,1111122 
DISL,ioos:station:DISL:MHPA:1,2017-05-03T22:30:00Z,30.6671,-87.9365,1.535,0.19,1111122 
DISL,ioos:station:DISL:MHPA:1,2017-05-03T23:00:00Z,30.6671,-87.9365,1.457,0.19,1111122 
DISL,ioos:station:DISL:MHPA:1,2017-05-03T23:30:00Z,30.6671,-87.9365,1.465,0.19,1111122 
DISL,ioos:station:DISL:MHPA:1,2017-05-04T00:00:00Z,30.6671,-87.9365,1.443,0.19,1111122 
DISL,ioos:station:DISL:MHPA:1,2017-05-04T00:30:00Z,30.6671,-87.9365,1.353,0.19,1111122 
DISL,ioos:station:DISL:MHPA:1,2017-05-04T01:00:00Z,30.6671,-87.9365,1.509,0.19,1111122 
DISL,ioos:station:DISL:MHPA:1,2017-05-04T01:30:00Z,30.6671,-87.9365,1.625,0.19,1111122 
DISL,ioos:station:DISL:MHPA:1,2017-05-04T02:00:00Z,30.6671,-87.9365,1.625,0.19,1111122 
DISL,ioos:station:DISL:MHPA:1,2017-05-04T02:30:00Z,30.6671,-87.9365,1.578,0.19,1111122 
DISL,ioos:station:DISL:MHPA:1,2017-05-04T03:00:00Z,30.6671,-87.9365,1.477,0.19,1111122 
DISL,ioos:station:DISL:MHPA:1,2017-05-04T03:30:00Z,30.6671,-87.9365,1.373,0.19,1111122 
DISL,ioos:station:DISL:MHPA:1,2017-05-04T04:00:00Z,30.6671,-87.9365,1.288,0.19,1111122 
DISL,ioos:station:DISL:MHPA:1,2017-05-04T04:30:00Z,30.6671,-87.9365,1.268,0.19,1111122 
DISL,ioos:station:DISL:MHPA:1,2017-05-04T05:00:00Z,30.6671,-87.9365,1.289,0.19,1111122 
DISL,ioos:station:DISL:MHPA:1,2017-05-04T05:30:00Z,30.6671,-87.9365,1.35,0.19,1111122 
DISL,ioos:station:DISL:MHPA:1,2017-05-04T06:00:00Z,30.6671,-87.9365,1.426,0.19,1111122 
DISL,ioos:station:DISL:MHPA:1,2017-05-04T06:30:00Z,30.6671,-87.9365,1.471,0.19,1111122 
DISL,ioos:station:DISL:MHPA:1,2017-05-04T07:00:00Z,30.6671,-87.9365,1.453,0.19,1111122 
DISL,ioos:station:DISL:MHPA:1,2017-05-04T07:30:00Z,30.6671,-87.9365,1.363,0.19,1111122 
DISL,ioos:station:DISL:MHPA:1,2017-05-04T08:00:00Z,30.6671,-87.9365,1.349,0.19,1111122 
DISL,ioos:station:DISL:MHPA:1,2017-05-04T08:30:00Z,30.6671,-87.9365,1.275,0.19,1111122 
DISL,ioos:station:DISL:MHPA:1,2017-05-04T09:00:00Z,30.6671,-87.9365,1.204,0.19,1111122 
DISL,ioos:station:DISL:MHPA:1,2017-05-04T09:30:00Z,30.6671,-87.9365,1.152,0.19,1111122 
DISL,ioos:station:DISL:MHPA:1,2017-05-04T10:00:00Z,30.6671,-87.9365,1.121,0.19,1111122 
DISL,ioos:station:DISL:MHPA:1,2017-05-04T10:30:00Z,30.6671,-87.9365,1.092,0.19,1111122 
DISL,ioos:station:DISL:MHPA:1,2017-05-04T11:00:00Z,30.6671,-87.9365,1.075,0.19,1111122 
DISL,ioos:station:DISL:MHPA:1,2017-05-04T11:30:00Z,30.6671,-87.9365,1.068,0.19,1111122 
DISL,ioos:station:DISL:MHPA:1,2017-05-04T12:00:00Z,30.6671,-87.9365,1.053,0.19,1111122 
DISL,ioos:station:DISL:MHPA:1,2017-05-04T12:30:00Z,30.6671,-87.9365,1.045,0.19,1111122 
DISL,ioos:station:DISL:MHPA:1,2017-05-04T13:00:00Z,30.6671,-87.9365,1.108,0.19,1111122 
DISL,ioos:station:DISL:MHPA:1,2017-05-04T13:30:00Z,30.6671,-87.9365,1.21,0.18,1111122 
DISL,ioos:station:DISL:MHPA:1,2017-05-04T14:00:00Z,30.6671,-87.9365,1.311,0.18,1111122 
DISL,ioos:station:DISL:MHPA:1,2017-05-04T14:30:00Z,30.6671,-87.9365,1.341,0.18,1111122 
DISL,ioos:station:DISL:MHPA:1,2017-05-04T15:00:00Z,30.6671,-87.9365,1.345,0.18,1111122 
DISL,ioos:station:DISL:MHPA:1,2017-05-04T15:30:00Z,30.6671,-87.9365,1.315,0.18,1111122 
DISL,ioos:station:DISL:MHPA:1,2017-05-04T16:00:00Z,30.6671,-87.9365,1.368,0.18,1111122 
DISL,ioos:station:DISL:MHPA:1,2017-05-04T16:30:00Z,30.6671,-87.9365,1.436,0.18,1111122 
DISL,ioos:station:DISL:MHPA:1,2017-05-04T17:00:00Z,30.6671,-87.9365,1.577,0.18,1111122 
DISL,ioos:station:DISL:MHPA:1,2017-05-04T17:30:00Z,30.6671,-87.9365,1.613,0.18,1111122 
DISL,ioos:station:DISL:MHPA:1,2017-05-04T18:00:00Z,30.6671,-87.9365,1.606,0.18,1111122 
DISL,ioos:station:DISL:MHPA:1,2017-05-04T18:30:00Z,30.6671,-87.9365,1.608,0.18,1111122 
DISL,ioos:station:DISL:MHPA:1,2017-05-04T19:00:00Z,30.6671,-87.9365,1.546,0.18,1111122 
DISL,ioos:station:DISL:MHPA:1,2017-05-04T19:30:00Z,30.6671,-87.9365,1.495,0.18,1111122 
DISL,ioos:station:DISL:MHPA:1,2017-05-04T20:00:00Z,30.6671,-87.9365,1.516,0.18,1111122 
DISL,ioos:station:DISL:MHPA:1,2017-05-04T20:30:00Z,30.6671,-87.9365,1.547,0.18,1111122 
DISL,ioos:station:DISL:MHPA:1,2017-05-04T21:00:00Z,30.6671,-87.9365,1.473,0.18,1111122 
DISL,ioos:station:DISL:MHPA:1,2017-05-04T21:30:00Z,30.6671,-87.9365,1.453,0.18,1111122 
DISL,ioos:station:DISL:MHPA:1,2017-05-04T22:00:00Z,30.6671,-87.9365,1.412,0.17,1111122 
DISL,ioos:station:DISL:MHPA:1,2017-05-04T22:30:00Z,30.6671,-87.9365,1.368,0.17,1111122 
DISL,ioos:station:DISL:MHPA:1,2017-05-04T23:00:00Z,30.6671,-87.9365,1.388,0.16,1111122 
DISL,ioos:station:DISL:MHPA:1,2017-05-04T23:30:00Z,30.6671,-87.9365,1.351,0.16,1111122 
DISL,ioos:station:DISL:MHPA:1,2017-05-05T00:00:00Z,30.6671,-87.9365,1.304,0.16,1111122 
DISL,ioos:station:DISL:MHPA:1,2017-05-05T00:30:00Z,30.6671,-87.9365,1.277,0.17,1111122 
DISL,ioos:station:DISL:MHPA:1,2017-05-05T01:00:00Z,30.6671,-87.9365,1.252,0.17,1111122 
DISL,ioos:station:DISL:MHPA:1,2017-05-05T01:30:00Z,30.6671,-87.9365,1.211,0.16,1111122 
DISL,ioos:station:DISL:MHPA:1,2017-05-05T02:00:00Z,30.6671,-87.9365,1.185,0.17,1111122 
DISL,ioos:station:DISL:MHPA:1,2017-05-05T02:30:00Z,30.6671,-87.9365,1.16,0.16,1111122 
DISL,ioos:station:DISL:MHPA:1,2017-05-05T03:00:00Z,30.6671,-87.9365,1.127,0.15,1111122 
DISL,ioos:station:DISL:MHPA:1,2017-05-05T03:30:00Z,30.6671,-87.9365,1.11,0.15,1111122 
DISL,ioos:station:DISL:MHPA:1,2017-05-05T04:00:00Z,30.6671,-87.9365,1.11,0.16,1111122 
DISL,ioos:station:DISL:MHPA:1,2017-05-05T04:30:00Z,30.6671,-87.9365,1.09,0.16,1111122 
DISL,ioos:station:DISL:MHPA:1,2017-05-05T05:00:00Z,30.6671,-87.9365,1.054,0.16,1111122 
DISL,ioos:station:DISL:MHPA:1,2017-05-05T05:30:00Z,30.6671,-87.9365,1.011,0.16,1111122 
DISL,ioos:station:DISL:MHPA:1,2017-05-05T06:00:00Z,30.6671,-87.9365,0.97,0.16,1111122 
DISL,ioos:station:DISL:MHPA:1,2017-05-05T06:30:00Z,30.6671,-87.9365,0.948,0.16,1111122 
DISL,ioos:station:DISL:MHPA:1,2017-05-05T07:00:00Z,30.6671,-87.9365,0.93,0.16,1111122 
DISL,ioos:station:DISL:MHPA:1,2017-05-05T07:30:00Z,30.6671,-87.9365,0.915,0.16,1111122 
DISL,ioos:station:DISL:MHPA:1,2017-05-05T08:00:00Z,30.6671,-87.9365,0.903,0.16,1111122 
DISL,ioos:station:DISL:MHPA:1,2017-05-05T08:30:00Z,30.6671,-87.9365,0.894,0.16,1111122 
DISL,ioos:station:DISL:MHPA:1,2017-05-05T09:00:00Z,30.6671,-87.9365,0.888,0.16,1111122 
DISL,ioos:station:DISL:MHPA:1,2017-05-05T09:30:00Z,30.6671,-87.9365,0.891,0.16,1111122 
DISL,ioos:station:DISL:MHPA:1,2017-05-05T10:00:00Z,30.6671,-87.9365,0.881,0.16,1111122 
DISL,ioos:station:DISL:MHPA:1,2017-05-05T10:30:00Z,30.6671,-87.9365,0.866,0.16,1111122 
DISL,ioos:station:DISL:MHPA:1,2017-05-05T11:00:00Z,30.6671,-87.9365,0.854,0.16,1111122 
DISL,ioos:station:DISL:MHPA:1,2017-05-05T11:30:00Z,30.6671,-87.9365,0.848,0.16,1111122 
DISL,ioos:station:DISL:MHPA:1,2017-05-05T12:00:00Z,30.6671,-87.9365,0.849,0.16,1111122 
DISL,ioos:station:DISL:MHPA:1,2017-05-05T12:30:00Z,30.6671,-87.9365,0.862,0.16,1111122 
DISL,ioos:station:DISL:MHPA:1,2017-05-05T13:00:00Z,30.6671,-87.9365,0.889,0.16,1111122 
DISL,ioos:station:DISL:MHPA:1,2017-05-05T13:30:00Z,30.6671,-87.9365,0.923,0.16,1111122 
DISL,ioos:station:DISL:MHPA:1,2017-05-05T14:00:00Z,30.6671,-87.9365,0.958,0.16,1111122 
DISL,ioos:station:DISL:MHPA:1,2017-05-05T14:30:00Z,30.6671,-87.9365,1.021,0.16,1111122 
DISL,ioos:station:DISL:MHPA:1,2017-05-05T15:00:00Z,30.6671,-87.9365,1.086,0.16,1111122 
DISL,ioos:station:DISL:MHPA:1,2017-05-05T15:30:00Z,30.6671,-87.9365,1.112,0.16,1111122 
DISL,ioos:station:DISL:MHPA:1,2017-05-05T16:00:00Z,30.6671,-87.9365,1.109,0.16,1111122 
DISL,ioos:station:DISL:MHPA:1,2017-05-05T16:30:00Z,30.6671,-87.9365,1.115,0.16,1111122 
DISL,ioos:station:DISL:MHPA:1,2017-05-05T17:00:00Z,30.6671,-87.9365,1.136,0.16,1111122 
DISL,ioos:station:DISL:MHPA:1,2017-05-05T17:30:00Z,30.6671,-87.9365,1.153,0.16,1111122 
DISL,ioos:station:DISL:MHPA:1,2017-05-05T18:00:00Z,30.6671,-87.9365,1.144,0.16,1111122 
DISL,ioos:station:DISL:MHPA:1,2017-05-05T18:30:00Z,30.6671,-87.9365,1.117,0.16,1111122 
DISL,ioos:station:DISL:MHPA:1,2017-05-05T19:00:00Z,30.6671,-87.9365,1.104,0.16,1111122 
DISL,ioos:station:DISL:MHPA:1,2017-05-05T19:30:00Z,30.6671,-87.9365,1.095,0.16,1111122 
DISL,ioos:station:DISL:MHPA:1,2017-05-05T20:00:00Z,30.6671,-87.9365,1.072,0.16,1111122 
DISL,ioos:station:DISL:MHPA:1,2017-05-05T20:30:00Z,30.6671,-87.9365,1.059,0.16,1111122 
DISL,ioos:station:DISL:MHPA:1,2017-05-05T21:00:00Z,30.6671,-87.9365,1.032,0.16,1111122 
DISL,ioos:station:DISL:MHPA:1,2017-05-05T21:30:00Z,30.6671,-87.9365,1.002,0.16,1111122 
DISL,ioos:station:DISL:MHPA:1,2017-05-05T22:00:00Z,30.6671,-87.9365,0.987,0.16,1111122 
DISL,ioos:station:DISL:MHPA:1,2017-05-05T22:30:00Z,30.6671,-87.9365,0.99,0.16,1111122 
DISL,ioos:station:DISL:MHPA:1,2017-05-05T23:00:00Z,30.6671,-87.9365,0.981,0.16,1111122 
DISL,ioos:station:DISL:MHPA:1,2017-05-05T23:30:00Z,30.6671,-87.9365,0.964,0.16,1111122 
DISL,ioos:station:DISL:MHPA:1,2017-05-06T00:00:00Z,30.6671,-87.9365,0.947,0.16,1111122 
DISL,ioos:station:DISL:MHPA:1,2017-05-06T00:30:00Z,30.6671,-87.9365,0.928,0.16,1111122 
DISL,ioos:station:DISL:MHPA:1,2017-05-06T01:00:00Z,30.6671,-87.9365,0.906,0.16,1111122 
DISL,ioos:station:DISL:MHPA:1,2017-05-06T01:30:00Z,30.6671,-87.9365,0.886,0.16,1111122 
DISL,ioos:station:DISL:MHPA:1,2017-05-06T02:00:00Z,30.6671,-87.9365,0.879,0.16,1111122 
DISL,ioos:station:DISL:MHPA:1,2017-05-06T02:30:00Z,30.6671,-87.9365,0.899,0.16,1111122 
DISL,ioos:station:DISL:MHPA:1,2017-05-06T03:00:00Z,30.6671,-87.9365,0.938,0.16,1111122 
DISL,ioos:station:DISL:MHPA:1,2017-05-06T03:30:00Z,30.6671,-87.9365,0.975,0.16,1111122 
DISL,ioos:station:DISL:MHPA:1,2017-05-06T04:00:00Z,30.6671,-87.9365,0.978,0.16,1111122 
DISL,ioos:station:DISL:MHPA:1,2017-05-06T04:30:00Z,30.6671,-87.9365,0.962,0.16,1111122 
DISL,ioos:station:DISL:MHPA:1,2017-05-06T05:00:00Z,30.6671,-87.9365,0.939,0.16,1111122 
DISL,ioos:station:DISL:MHPA:1,2017-05-06T05:30:00Z,30.6671,-87.9365,0.919,0.16,1111122 
DISL,ioos:station:DISL:MHPA:1,2017-05-06T06:00:00Z,30.6671,-87.9365,0.903,0.16,1111122 
DISL,ioos:station:DISL:MHPA:1,2017-05-06T06:30:00Z,30.6671,-87.9365,0.889,0.16,1111122 
DISL,ioos:station:DISL:MHPA:1,2017-05-06T07:00:00Z,30.6671,-87.9365,0.888,0.16,1111122 
DISL,ioos:station:DISL:MHPA:1,2017-05-06T07:30:00Z,30.6671,-87.9365,0.895,0.16,1111122 
DISL,ioos:station:DISL:MHPA:1,2017-05-06T08:00:00Z,30.6671,-87.9365,0.902,0.16,1111122 
DISL,ioos:station:DISL:MHPA:1,2017-05-06T08:30:00Z,30.6671,-87.9365,0.911,0.16,1111122 
DISL,ioos:station:DISL:MHPA:1,2017-05-06T09:00:00Z,30.6671,-87.9365,0.905,0.16,1111122 
DISL,ioos:station:DISL:MHPA:1,2017-05-06T09:30:00Z,30.6671,-87.9365,0.89,0.16,1111122 
DISL,ioos:station:DISL:MHPA:1,2017-05-06T10:00:00Z,30.6671,-87.9365,0.875,0.16,1111122 
DISL,ioos:station:DISL:MHPA:1,2017-05-06T10:30:00Z,30.6671,-87.9365,0.872,0.16,1111122 
DISL,ioos:station:DISL:MHPA:1,2017-05-06T11:00:00Z,30.6671,-87.9365,0.886,0.16,1111122 
DISL,ioos:station:DISL:MHPA:1,2017-05-06T11:30:00Z,30.6671,-87.9365,0.905,0.16,1111122 
DISL,ioos:station:DISL:MHPA:1,2017-05-06T12:00:00Z,30.6671,-87.9365,0.922,0.16,1111122 
DISL,ioos:station:DISL:MHPA:1,2017-05-06T12:30:00Z,30.6671,-87.9365,0.953,0.16,1111122 
DISL,ioos:station:DISL:MHPA:1,2017-05-06T13:00:00Z,30.6671,-87.9365,0.983,0.16,1111122 
DISL,ioos:station:DISL:MHPA:1,2017-05-06T13:30:00Z,30.6671,-87.9365,0.991,0.16,1111122 
DISL,ioos:station:DISL:MHPA:1,2017-05-06T14:00:00Z,30.6671,-87.9365,0.998,0.16,1111122 
DISL,ioos:station:DISL:MHPA:1,2017-05-06T14:30:00Z,30.6671,-87.9365,0.999,0.16,1111122 
DISL,ioos:station:DISL:MHPA:1,2017-05-06T15:00:00Z,30.6671,-87.9365,1.005,0.16,1111122 
DISL,ioos:station:DISL:MHPA:1,2017-05-06T15:30:00Z,30.6671,-87.9365,1.023,0.16,1111122 